Location: Mount Kobau Star Party
(49.1167°N, 119.7333°W)
Time: 21:06:22
(UTC-08:00)

Altair - All Passes

Search period start: 09 February 2026 00:00
Search period end: 19 February 2026 00:00
Orbit: 1502 x 1682 km, 47.2° (Epoch: 9 February)

Date Brightness Start Highest point End Pass type
(mag) Time Alt. Az. Time Alt. Az. Time Alt. Az.
9 Feb - 04:38:32 10° SSE 04:43:08 15° SE 04:47:47 10° E visible
9 Feb - 06:37:09 10° SSW 06:45:48 45° SE 06:54:45 10° ENE visible
9 Feb - 08:40:25 10° WSW 08:49:49 77° SSE 08:59:38 10° E daylight
9 Feb - 10:44:54 10° W 10:54:29 76° SSW 11:04:26 10° ESE daylight
9 Feb - 12:49:34 10° WNW 12:58:36 45° SW 13:07:54 10° SSE daylight
9 Feb - 14:56:27 10° W 15:01:26 15° SW 15:06:28 10° SSW daylight
10 Feb - 04:14:20 10° SSE 04:18:06 13° ESE 04:21:54 10° E visible
10 Feb - 06:12:09 10° SSW 06:20:39 42° SE 06:29:27 10° ENE visible
10 Feb - 08:15:14 10° WSW 08:24:35 75° SSE 08:34:21 10° E daylight
10 Feb - 10:19:41 10° W 10:29:14 77° S 10:39:10 10° ESE daylight
10 Feb - 12:24:18 10° WNW 12:33:25 47° SSW 12:42:49 10° SE daylight
10 Feb - 14:30:46 10° W 14:36:21 17° SW 14:42:02 10° SSW daylight
11 Feb - 03:50:29 10° SE 03:53:05 11° ESE 03:55:41 10° ESE visible
11 Feb - 05:47:11 10° SSW 05:55:31 40° SE 06:04:08 10° ENE visible
11 Feb - 07:50:03 10° WSW 07:59:22 73° SSE 08:09:04 10° E daylight
11 Feb - 09:54:28 10° W 10:03:59 78° S 10:13:54 10° ESE daylight
11 Feb - 11:59:04 10° WNW 12:08:14 50° SSW 12:17:42 10° SE daylight
11 Feb - 14:05:10 10° W 14:11:16 19° SW 14:17:30 10° SSW daylight
12 Feb - 05:22:13 10° SSW 05:30:24 37° SE 05:38:49 10° ENE visible
12 Feb - 07:24:53 10° WSW 07:34:09 72° SSE 07:43:47 10° E daylight
12 Feb - 09:29:15 10° W 09:38:45 79° S 09:48:37 10° ESE daylight
12 Feb - 11:33:50 10° WNW 11:43:03 52° SSW 11:52:35 10° SE daylight
12 Feb - 13:39:39 10° W 13:46:11 20° SW 13:52:51 10° S daylight
13 Feb - 04:57:17 10° SSW 05:05:17 35° SE 05:13:30 10° ENE visible
13 Feb - 06:59:44 10° WSW 07:08:56 70° SSE 07:18:32 10° E daylight
13 Feb - 09:04:02 10° W 09:13:30 80° S 09:23:22 10° E daylight
13 Feb - 11:08:37 10° WNW 11:17:51 55° SSW 11:27:26 10° SE daylight
13 Feb - 13:14:11 10° W 13:21:05 22° SW 13:28:09 10° S daylight
14 Feb - 04:32:23 10° SSW 04:40:11 32° SE 04:48:10 10° E visible
14 Feb - 06:34:35 10° WSW 06:43:44 67° SSE 06:53:15 10° E visible
14 Feb - 08:38:50 10° W 08:48:16 81° S 08:58:05 10° E daylight
14 Feb - 10:43:23 10° WNW 10:52:40 57° SSW 11:02:17 10° SE daylight
14 Feb - 12:48:46 10° W 12:55:59 24° SW 13:03:23 10° S daylight
15 Feb - 04:07:31 10° SSW 04:15:05 30° SE 04:22:49 10° E visible
15 Feb - 06:09:26 10° WSW 06:18:32 65° SSE 06:27:59 10° E visible
15 Feb - 08:13:37 10° W 08:23:01 81° S 08:32:49 10° E daylight
15 Feb - 10:18:10 10° WNW 10:27:28 60° SSW 10:37:06 10° SE daylight
15 Feb - 12:23:23 10° W 12:30:52 26° SW 12:38:34 10° S daylight
16 Feb - 03:42:41 10° S 03:50:00 28° SE 03:57:27 10° E visible
16 Feb - 05:44:18 10° SW 05:53:21 62° SSE 06:02:43 10° E visible
16 Feb - 07:48:25 10° W 07:57:47 81° S 08:07:32 10° E daylight
16 Feb - 09:52:57 10° W 10:02:15 62° SSW 10:11:55 10° SE daylight
16 Feb - 11:58:02 10° W 12:05:46 28° SW 12:13:42 10° S daylight
17 Feb - 03:17:53 10° S 03:24:55 26° SE 03:32:04 10° E visible
17 Feb - 05:19:11 10° SW 05:28:10 60° SSE 05:37:27 10° ENE visible
17 Feb - 07:23:12 10° W 07:32:33 81° S 07:42:15 10° E daylight
17 Feb - 09:27:44 10° W 09:37:03 64° SSW 09:46:43 10° SE daylight
17 Feb - 11:32:42 10° W 11:40:38 30° SW 11:48:48 10° SSE daylight
18 Feb - 02:53:08 10° S 02:59:51 23° SE 03:06:39 10° E visible
18 Feb - 04:54:05 10° SW 05:03:00 57° SSE 05:12:11 10° ENE visible
18 Feb - 06:58:00 10° W 07:07:19 81° S 07:16:59 10° E daylight
18 Feb - 09:02:31 10° W 09:11:50 67° SSW 09:21:30 10° ESE daylight
18 Feb - 11:07:24 10° W 11:15:31 32° SW 11:23:53 10° SSE daylight
